Home   Weather   Belize City   Past weeks

Flag for Belize Past Weather in Belize City, Belize — Yesterday and Last 2 Weeks

Now
75 °F

Passing clouds.


Feels Like: 74 °F
Forecast: 75 / 80 °F
Wind: 3 mph from Southwest

Location: Belize / Phillip Goldston Intl. Airport

Current Time: Jan 16, 2017 at 9:34:29 am

Latest Report: Jan 16, 2017 at 9:00 am


Visibility: N/A

Pressure: 30.03 "Hg

Humidity: 94%

Dew Point: 73 °F

Location of Belize CityLocation

Past Weather in Belize City — Graph

°F

Belize City Temperature Yesterday

Maximum temperature yesterday: 82 °F (at 2:00 pm)
Minimum temperature yesterday: 70 °F (at 5:00 am)
Average temperature yesterday: 75 °F

High & Low Weather Summary for the Past Weeks

 TemperatureHumidityPressure
High86 °F (Jan 2, 11:00 am)100% (Jan 1, 8:00 am)30.39 "Hg (Jan 1, 8:00 am)
Low63 °F (Jan 9, 6:00 am)57% (Jan 8, 2:00 pm)29.85 "Hg (Jan 6, 2:00 pm)
Average77 °F82%30.06 "Hg
* Reported Jan 1 8:00 am — Jan 16 8:10 am, Belize City, Weather by CustomWeather, © 2017

Note: Actual official high and low records may vary slightly from our data, if they occured in-between our weather recording intervals... More about our weather records

Advertising

Belize City Weather History for the Previous 24 Hours

Scroll right to see more
 ConditionsComfort  
Time TempWeatherWind HumidityBarometerVisibility
8:10 am
Mon, Jan 16
72 °FScattered clouds.No wind100%30.01 "HgN/A
8:00 am72 °FBroken clouds.2 mph100%30.00 "Hg5 mi
7:40 am70 °FFog.2 mph100%30.00 "Hg2 mi
7:35 am70 °FFog.3 mph100%30.00 "Hg1 mi
7:00 am70 °FFog.3 mph100%29.99 "Hg0 mi
6:20 am70 °FFog.No wind100%29.98 "Hg0 mi
6:00 am70 °FFog.No wind100%29.98 "Hg1 mi
5:40 am70 °FFog.No wind100%29.97 "Hg1 mi
5:00 am70 °FFog.5 mph100%29.97 "Hg0 mi
8:00 pm
Sun, Jan 15
73 °FPassing clouds.No wind100%30.01 "HgN/A
7:00 pm75 °FPassing clouds.No wind94%29.99 "HgN/A
6:00 pm77 °FPassing clouds.2 mph89%29.97 "HgN/A
5:00 pm81 °FScattered clouds.6 mph79%29.95 "HgN/A
4:00 pm81 °FScattered clouds.7 mph74%29.95 "HgN/A
3:00 pm82 °FScattered clouds.8 mph70%29.95 "HgN/A
2:00 pm82 °FScattered clouds.8 mph70%29.97 "HgN/A
1:00 pm81 °FBroken clouds.7 mph74%30.00 "HgN/A
12:00 pm81 °FBroken clouds.8 mph79%30.03 "HgN/A
11:00 am77 °FBroken clouds.7 mph89%30.08 "HgN/A
10:00 am73 °FBroken clouds.6 mph94%30.09 "HgN/A
9:00 am72 °FLight rain. Broken clouds.5 mph100%30.09 "Hg4 mi
Weather by CustomWeather, © 2017

See weather overviewHow to use our weather pages